| time (UTC) | temp F | wind direction | speed knots | gust knots | rain 1hr in | rain 24hr in | rain mn in | humidity % | barometer mb |
| 20260509021530 | 53 | 0 | 0.0 | 0.0 | 0.00 | 0.00 | 0.00 | 55 | 1007.4 |
| 20260509021013 | 53 | 0 | 0.0 | 0.0 | 0.00 | 0.00 | 0.00 | 51 | 1007.5 |
| 20260509020516 | 53 | 0 | 0.0 | 0.0 | 0.00 | 0.00 | 0.00 | 47 | 1007.5 |
| 20260509020036 | 53 | 0 | 0.0 | 0.0 | 0.00 | 0.00 | 0.00 | 47 | 1007.5 |
| 20260509015514 | 53 | 0 | 0.0 | 0.0 | 0.00 | 0.00 | 0.00 | 48 | 1007.4 |
| 20260509015015 | 54 | 0 | 0.0 | 0.0 | 0.00 | 0.00 | 0.00 | 50 | 1007.4 |
| 20260509014535 | 54 | 0 | 0.0 | 0.0 | 0.00 | 0.00 | 0.00 | 49 | 1007.4 |
| 20260509014021 | 55 | 0 | 0.0 | 0.9 | 0.00 | 0.00 | 0.00 | 50 | 1007.3 |
| 20260509013521 | 55 | 0 | 0.0 | 0.9 | 0.00 | 0.00 | 0.00 | 48 | 1007.2 |
| 20260509013035 | 55 | 0 | 0.0 | 0.9 | 0.00 | 0.00 | 0.00 | 50 | 1007.3 |
| 20260509012515 | 56 | 0 | 0.0 | 0.9 | 0.00 | 0.00 | 0.00 | 48 | 1007.1 |
| 20260509012015 | 56 | 0 | 0.0 | 0.9 | 0.00 | 0.00 | 0.00 | 45 | 1007.1 |
| 20260509011531 | 56 | 0 | 0.0 | 0.9 | 0.00 | 0.00 | 0.00 | 45 | 1007.0 |
| 20260509011015 | 56 | 0 | 0.0 | 0.0 | 0.00 | 0.00 | 0.00 | 49 | 1006.9 |
| 20260509010514 | 57 | 0 | 0.0 | 0.0 | 0.00 | 0.00 | 0.00 | 44 | 1006.9 |
| 20260509010032 | 58 | 0 | 0.0 | 0.0 | 0.00 | 0.00 | 0.00 | 44 | 1006.8 |
| 20260509005516 | 58 | 0 | 0.0 | 0.9 | 0.00 | 0.00 | 0.00 | 40 | 1006.7 |
| 20260509005015 | 59 | 0 | 0.0 | 0.9 | 0.00 | 0.00 | 0.00 | 40 | 1006.6 |
| 20260509004537 | 59 | 0 | 0.0 | 0.0 | 0.00 | 0.00 | 0.00 | 39 | 1006.6 |
| 20260509004016 | 60 | 0 | 0.0 | 0.9 | 0.00 | 0.00 | 0.00 | 37 | 1006.7 |
| 20260509003517 | 60 | 0 | 0.0 | 1.7 | 0.00 | 0.00 | 0.00 | 36 | 1006.7 |
| 20260509003035 | 60 | 265 | 0.0 | 1.7 | 0.00 | 0.00 | 0.00 | 35 | 1006.6 |
| 20260509002516 | 60 | 0 | 0.0 | 0.9 | 0.00 | 0.00 | 0.00 | 35 | 1006.6 |
| 20260509002014 | 61 | 259 | 0.0 | 2.6 | 0.00 | 0.00 | 0.00 | 34 | 1006.6 |
| 20260509001531 | 61 | 0 | 0.0 | 2.6 | 0.00 | 0.00 | 0.00 | 35 | 1006.6 |
| 20260509001015 | 61 | 0 | 0.0 | 5.2 | 0.00 | 0.00 | 0.00 | 34 | 1006.5 |
| 20260509000516 | 61 | 240 | 0.9 | 6.1 | 0.00 | 0.00 | 0.00 | 36 | 1006.5 |
| 20260509000031 | 62 | 0 | 1.7 | 6.1 | 0.00 | 0.00 | 0.00 | 35 | 1006.5 |
| 20260508235514 | 62 | 198 | 1.7 | 6.1 | 0.00 | 0.00 | 0.00 | 35 | 1006.5 |
| 20260508235016 | 62 | 184 | 3.5 | 6.1 | 0.00 | 0.00 | 0.00 | 32 | 1006.5 |
| 20260508234532 | 62 | 219 | 1.7 | 6.1 | 0.00 | 0.00 | 0.00 | 32 | 1006.5 |
| 20260508234014 | 62 | 162 | 0.0 | 6.1 | 0.00 | 0.00 | 0.00 | 34 | 1006.4 |
| 20260508233515 | 62 | 258 | 1.7 | 6.1 | 0.00 | 0.00 | 0.00 | 34 | 1006.5 |
| 20260508233034 | 62 | 233 | 0.9 | 5.2 | 0.00 | 0.00 | 0.00 | 34 | 1006.5 |
| 20260508232515 | 62 | 236 | 0.0 | 5.2 | 0.00 | 0.00 | 0.00 | 34 | 1006.5 |
| 20260508232016 | 62 | 263 | 2.6 | 8.7 | 0.00 | 0.00 | 0.00 | 33 | 1006.6 |
| 20260508231529 | 62 | 221 | 2.6 | 8.7 | 0.00 | 0.00 | 0.00 | 32 | 1006.7 |
| 20260508231016 | 62 | 224 | 2.6 | 8.7 | 0.00 | 0.00 | 0.00 | 33 | 1006.6 |
| 20260508230516 | 62 | 257 | 2.6 | 10.4 | 0.00 | 0.00 | 0.00 | 33 | 1006.6 |
| 20260508230033 | 62 | 221 | 1.7 | 10.4 | 0.00 | 0.00 | 0.00 | 31 | 1006.6 |
| 20260508225521 | 63 | 271 | 6.1 | 10.4 | 0.00 | 0.00 | 0.00 | 31 | 1006.5 |
| 20260508225014 | 63 | 264 | 3.5 | 8.7 | 0.00 | 0.00 | 0.00 | 31 | 1006.6 |
| 20260508224531 | 63 | 245 | 2.6 | 8.7 | 0.00 | 0.00 | 0.00 | 32 | 1006.7 |
| 20260508224016 | 63 | 142 | 2.6 | 8.7 | 0.00 | 0.00 | 0.00 | 32 | 1006.7 |
| 20260508223516 | 63 | 200 | 2.6 | 8.7 | 0.00 | 0.00 | 0.00 | 32 | 1006.7 |
| 20260508223039 | 63 | 247 | 3.5 | 8.7 | 0.00 | 0.00 | 0.00 | 32 | 1006.8 |
| 20260508222514 | 63 | 202 | 0.0 | 6.1 | 0.00 | 0.00 | 0.00 | 32 | 1006.8 |
| 20260508222018 | 62 | 184 | 0.9 | 6.1 | 0.00 | 0.00 | 0.00 | 34 | 1006.8 |
| 20260508221535 | 61 | 163 | 2.6 | 6.1 | 0.00 | 0.00 | 0.00 | 33 | 1006.8 |
| 20260508221016 | 62 | 0 | 2.6 | 8.7 | 0.00 | 0.00 | 0.00 | 32 | 1006.9 |
| 20260508220517 | 62 | 243 | 3.5 | 10.4 | 0.00 | 0.00 | 0.00 | 32 | 1006.9 |
| 20260508220038 | 63 | 198 | 3.5 | 10.4 | 0.00 | 0.00 | 0.00 | 32 | 1006.9 |
| 20260508215514 | 63 | 200 | 5.2 | 13.9 | 0.00 | 0.00 | 0.00 | 31 | 1007.0 |
| 20260508215014 | 63 | 205 | 4.3 | 13.9 | 0.00 | 0.00 | 0.00 | 33 | 1007.0 |
| 20260508214529 | 63 | 233 | 5.2 | 12.2 | 0.00 | 0.00 | 0.00 | 29 | 1007.1 |
| 20260508214016 | 63 | 255 | 1.7 | 8.7 | 0.00 | 0.00 | 0.00 | 32 | 1007.0 |
| 20260508213516 | 63 | 240 | 1.7 | 12.2 | 0.00 | 0.00 | 0.00 | 29 | 1007.0 |
| 20260508213032 | 63 | 218 | 3.5 | 12.2 | 0.00 | 0.00 | 0.00 | 31 | 1007.0 |
| 20260508212516 | 62 | 298 | 5.2 | 12.2 | 0.00 | 0.00 | 0.00 | 30 | 1007.1 |
| 20260508212013 | 62 | 207 | 4.3 | 9.6 | 0.00 | 0.00 | 0.00 | 30 | 1007.1 |
| 20260508211538 | 62 | 289 | 4.3 | 9.6 | 0.00 | 0.00 | 0.00 | 29 | 1007.1 |
| 20260508211015 | 62 | 179 | 2.6 | 8.7 | 0.00 | 0.00 | 0.00 | 30 | 1007.1 |
| 20260508210514 | 62 | 204 | 2.6 | 10.4 | 0.00 | 0.00 | 0.00 | 32 | 1007.2 |
| 20260508210030 | 62 | 230 | 4.3 | 10.4 | 0.00 | 0.00 | 0.00 | 30 | 1007.3 |
| 20260508205518 | 62 | 226 | 5.2 | 10.4 | 0.00 | 0.00 | 0.00 | 32 | 1007.2 |
| 20260508205015 | 62 | 221 | 3.5 | 9.6 | 0.00 | 0.00 | 0.00 | 32 | 1007.4 |
| 20260508204530 | 62 | 221 | 1.7 | 11.3 | 0.00 | 0.00 | 0.00 | 32 | 1007.4 |
| 20260508204015 | 62 | 178 | 4.3 | 11.3 | 0.00 | 0.00 | 0.00 | 31 | 1007.5 |
| 20260508203514 | 62 | 241 | 4.3 | 11.3 | 0.00 | 0.00 | 0.00 | 32 | 1007.7 |
| 20260508203031 | 62 | 236 | 4.3 | 8.7 | 0.00 | 0.00 | 0.00 | 32 | 1007.7 |
| 20260508202516 | 62 | 214 | 1.7 | 8.7 | 0.00 | 0.00 | 0.00 | 30 | 1007.7 |
| 20260508202015 | 63 | 200 | 1.7 | 8.7 | 0.00 | 0.00 | 0.00 | 30 | 1007.8 |
| 20260508201535 | 62 | 251 | 1.7 | 8.7 | 0.00 | 0.00 | 0.00 | 32 | 1007.9 |
| 20260508201014 | 62 | 283 | 2.6 | 6.1 | 0.00 | 0.00 | 0.00 | 31 | 1007.9 |
| 20260508200514 | 61 | 0 | 0.0 | 6.1 | 0.00 | 0.00 | 0.00 | 34 | 1008.0 |
| 20260508200032 | 60 | 236 | 1.7 | 7.0 | 0.00 | 0.00 | 0.00 | 31 | 1008.2 |
| 20260508195512 | 60 | 221 | 3.5 | 10.4 | 0.00 | 0.00 | 0.00 | 31 | 1008.3 |
| 20260508195016 | 60 | 231 | 4.3 | 10.4 | 0.00 | 0.00 | 0.00 | 31 | 1008.3 |
| 20260508194532 | 60 | 229 | 3.5 | 10.4 | 0.00 | 0.00 | 0.00 | 31 | 1008.4 |
| 20260508194013 | 60 | 214 | 1.7 | 11.3 | 0.00 | 0.00 | 0.00 | 29 | 1008.6 |
| 20260508193516 | 60 | 285 | 3.5 | 11.3 | 0.00 | 0.00 | 0.00 | 31 | 1008.7 |
| 20260508193039 | 60 | 193 | 5.2 | 11.3 | 0.00 | 0.00 | 0.00 | 30 | 1008.7 |
| 20260508192514 | 60 | 180 | 4.3 | 9.6 | 0.00 | 0.00 | 0.00 | 31 | 1008.8 |
| 20260508192018 | 60 | 176 | 1.7 | 11.3 | 0.00 | 0.00 | 0.00 | 32 | 1008.8 |
| 20260508191538 | 60 | 215 | 2.6 | 11.3 | 0.00 | 0.00 | 0.00 | 32 | 1008.8 |
| 20260508191014 | 60 | 215 | 2.6 | 11.3 | 0.00 | 0.00 | 0.00 | 31 | 1008.9 |
| 20260508190516 | 60 | 227 | 0.9 | 5.2 | 0.00 | 0.00 | 0.00 | 31 | 1008.9 |
| 20260508190034 | 59 | 218 | 0.9 | 8.7 | 0.00 | 0.00 | 0.00 | 31 | 1008.9 |
| 20260508185513 | 59 | 225 | 1.7 | 12.2 | 0.00 | 0.00 | 0.00 | 30 | 1009.0 |
| 20260508185014 | 60 | 224 | 4.3 | 12.2 | 0.00 | 0.00 | 0.00 | 30 | 1009.2 |
| 20260508184532 | 60 | 276 | 2.6 | 11.3 | 0.00 | 0.00 | 0.00 | 31 | 1009.2 |
| 20260508184013 | 59 | 219 | 4.3 | 12.2 | 0.00 | 0.00 | 0.00 | 29 | 1009.2 |
| 20260508183516 | 60 | 221 | 5.2 | 12.2 | 0.00 | 0.00 | 0.00 | 29 | 1009.3 |
| 20260508183034 | 60 | 122 | 3.5 | 10.4 | 0.00 | 0.00 | 0.00 | 30 | 1009.3 |
| 20260508182514 | 61 | 240 | 1.7 | 7.0 | 0.00 | 0.00 | 0.00 | 30 | 1009.3 |
| 20260508182014 | 61 | 238 | 1.7 | 7.8 | 0.00 | 0.00 | 0.00 | 30 | 1009.3 |
| 20260508181531 | 60 | 258 | 0.9 | 7.8 | 0.00 | 0.00 | 0.00 | 30 | 1009.4 |
| 20260508181013 | 60 | 226 | 1.7 | 7.8 | 0.00 | 0.00 | 0.00 | 33 | 1009.5 |
| 20260508180512 | 60 | 248 | 2.6 | 7.0 | 0.00 | 0.00 | 0.00 | 29 | 1009.6 |
| 20260508180032 | 59 | 0 | 0.0 | 9.6 | 0.00 | 0.00 | 0.00 | 30 | 1009.5 |
| 20260508175514 | 59 | 205 | 4.3 | 9.6 | 0.00 | 0.00 | 0.00 | 31 | 1009.7 |
| 20260508175014 | 60 | 207 | 2.6 | 7.8 | 0.00 | 0.00 | 0.00 | 31 | 1009.7 |
| 20260508174527 | 59 | 0 | 2.6 | 10.4 | 0.00 | 0.00 | 0.00 | 30 | 1009.8 |
| 20260508174014 | 59 | 195 | 5.2 | 10.4 | 0.00 | 0.00 | 0.00 | 31 | 1010.0 |
| 20260508173513 | 60 | 250 | 1.7 | 7.0 | 0.00 | 0.00 | 0.00 | 31 | 1010.0 |
| 20260508173030 | 59 | 248 | 0.9 | 10.4 | 0.00 | 0.00 | 0.00 | 30 | 1010.0 |
| 20260508172513 | 59 | 278 | 0.9 | 10.4 | 0.00 | 0.00 | 0.00 | 31 | 1010.1 |
| 20260508172013 | 58 | 254 | 5.2 | 10.4 | 0.00 | 0.00 | 0.00 | 30 | 1010.4 |
| 20260508171536 | 59 | 175 | 4.3 | 10.4 | 0.00 | 0.00 | 0.00 | 29 | 1010.4 |
| 20260508171014 | 59 | 184 | 1.7 | 7.0 | 0.00 | 0.00 | 0.00 | 31 | 1010.4 |
| 20260508170514 | 59 | 276 | 0.9 | 6.1 | 0.00 | 0.00 | 0.00 | 31 | 1010.3 |
| 20260508170030 | 58 | 0 | 0.9 | 9.6 | 0.00 | 0.00 | 0.00 | 31 | 1010.4 |
| 20260508165515 | 58 | 249 | 5.2 | 9.6 | 0.00 | 0.00 | 0.00 | 31 | 1010.7 |
| 20260508165014 | 58 | 216 | 1.7 | 6.1 | 0.00 | 0.00 | 0.00 | 32 | 1010.6 |
| 20260508164531 | 58 | 184 | 0.9 | 5.2 | 0.00 | 0.00 | 0.00 | 33 | 1010.6 |
| 20260508164014 | 57 | 172 | 1.7 | 7.8 | 0.00 | 0.00 | 0.00 | 32 | 1010.7 |
| 20260508163514 | 57 | 237 | 3.5 | 7.8 | 0.00 | 0.00 | 0.00 | 33 | 1010.8 |
| 20260508163030 | 58 | 232 | 1.7 | 5.2 | 0.00 | 0.00 | 0.00 | 33 | 1010.9 |
| 20260508162514 | 58 | 0 | 0.9 | 7.8 | 0.00 | 0.00 | 0.00 | 30 | 1010.9 |
| 20260508162013 | 58 | 163 | 1.7 | 8.7 | 0.00 | 0.00 | 0.00 | 32 | 1010.9 |
| 20260508161533 | 57 | 284 | 3.5 | 9.6 | 0.00 | 0.00 | 0.00 | 33 | 1011.0 |
| 20260508161015 | 57 | 234 | 2.6 | 9.6 | 0.00 | 0.00 | 0.00 | 31 | 1010.9 |
| 20260508160514 | 56 | 218 | 3.5 | 9.6 | 0.00 | 0.00 | 0.00 | 31 | 1011.0 |
| 20260508160031 | 56 | 238 | 2.6 | 9.6 | 0.00 | 0.00 | 0.00 | 32 | 1011.1 |
| 20260508155519 | 56 | 233 | 3.5 | 8.7 | 0.00 | 0.00 | 0.00 | 31 | 1011.2 |
| 20260508155015 | 56 | 217 | 3.5 | 8.7 | 0.00 | 0.00 | 0.00 | 32 | 1011.3 |
| 20260508154530 | 56 | 211 | 1.7 | 7.0 | 0.00 | 0.00 | 0.00 | 33 | 1011.2 |
| 20260508154014 | 57 | 170 | 2.6 | 6.1 | 0.00 | 0.00 | 0.00 | 35 | 1011.2 |
| 20260508153516 | 57 | 175 | 0.0 | 3.5 | 0.00 | 0.00 | 0.00 | 35 | 1011.2 |
| 20260508153034 | 56 | 264 | 1.7 | 5.2 | 0.00 | 0.00 | 0.00 | 34 | 1011.2 |
| 20260508152516 | 55 | 0 | 0.9 | 5.2 | 0.00 | 0.00 | 0.00 | 37 | 1011.3 |
| 20260508152018 | 55 | 228 | 2.6 | 9.6 | 0.00 | 0.00 | 0.00 | 36 | 1011.4 |
| 20260508151530 | 55 | 258 | 1.7 | 9.6 | 0.00 | 0.00 | 0.00 | 35 | 1011.4 |
| 20260508151014 | 55 | 281 | 0.9 | 5.2 | 0.00 | 0.00 | 0.00 | 41 | 1011.4 |
| 20260508150518 | 54 | 9 | 2.6 | 5.2 | 0.00 | 0.00 | 0.00 | 38 | 1011.4 |
| 20260508150032 | 55 | 60 | 0.9 | 6.1 | 0.00 | 0.00 | 0.00 | 36 | 1011.4 |
| 20260508145515 | 55 | 239 | 0.9 | 6.1 | 0.00 | 0.00 | 0.00 | 40 | 1011.4 |
| 20260508145016 | 55 | 212 | 1.7 | 7.8 | 0.00 | 0.00 | 0.00 | 39 | 1011.5 |
| 20260508144536 | 55 | 221 | 1.7 | 7.8 | 0.00 | 0.00 | 0.00 | 39 | 1011.5 |
| 20260508144015 | 55 | 226 | 0.9 | 4.3 | 0.00 | 0.00 | 0.00 | 42 | 1011.5 |
| 20260508143518 | 55 | 231 | 0.9 | 3.5 | 0.00 | 0.00 | 0.00 | 43 | 1011.4 |
| 20260508143029 | 54 | 253 | 0.0 | 4.3 | 0.00 | 0.00 | 0.00 | 45 | 1011.6 |
| 20260508142516 | 54 | 246 | 0.9 | 5.2 | 0.00 | 0.00 | 0.00 | 44 | 1011.6 |
| 20260508142015 | 54 | 182 | 1.7 | 5.2 | 0.00 | 0.00 | 0.00 | 41 | 1011.5 |
| 20260508141533 | 55 | 266 | 1.7 | 5.2 | 0.00 | 0.00 | 0.00 | 42 | 1011.7 |
| 20260508141015 | 55 | 228 | 0.0 | 2.6 | 0.00 | 0.00 | 0.00 | 48 | 1011.8 |
| 20260508140514 | 55 | 235 | 0.9 | 2.6 | 0.00 | 0.00 | 0.00 | 45 | 1011.9 |
| 20260508140032 | 55 | 184 | 0.0 | 0.9 | 0.00 | 0.00 | 0.00 | 47 | 1011.9 |
| 20260508135515 | 54 | 0 | 0.0 | 1.7 | 0.00 | 0.00 | 0.00 | 48 | 1012.0 |
| 20260508135014 | 54 | 0 | 0.0 | 1.7 | 0.00 | 0.00 | 0.00 | 47 | 1012.0 |
| 20260508134532 | 55 | 0 | 0.0 | 0.9 | 0.00 | 0.00 | 0.00 | 49 | 1012.0 |
| 20260508134016 | 55 | 160 | 0.0 | 0.9 | 0.00 | 0.00 | 0.00 | 48 | 1012.0 |
| 20260508133519 | 54 | 0 | 0.0 | 1.7 | 0.00 | 0.00 | 0.00 | 52 | 1012.0 |
| 20260508133032 | 52 | 0 | 0.0 | 1.7 | 0.00 | 0.00 | 0.00 | 54 | 1012.0 |
| 20260508132515 | 51 | 0 | 0.0 | 1.7 | 0.00 | 0.00 | 0.00 | 55 | 1012.0 |
| 20260508132014 | 51 | 0 | 0.0 | 1.7 | 0.00 | 0.00 | 0.00 | 59 | 1012.1 |
| 20260508131534 | 51 | 0 | 0.0 | 1.7 | 0.00 | 0.00 | 0.00 | 57 | 1012.1 |
| 20260508131015 | 51 | 157 | 0.0 | 1.7 | 0.00 | 0.00 | 0.00 | 58 | 1012.1 |
| 20260508130518 | 50 | 0 | 0.0 | 1.7 | 0.00 | 0.00 | 0.00 | 60 | 1012.1 |
| 20260508130033 | 49 | 0 | 0.9 | 1.7 | 0.00 | 0.00 | 0.00 | 60 | 1012.1 |
| 20260508125514 | 49 | 210 | 0.0 | 1.7 | 0.00 | 0.00 | 0.00 | 65 | 1012.0 |
| 20260508125016 | 48 | 0 | 0.0 | 3.5 | 0.00 | 0.00 | 0.00 | 68 | 1012.0 |
| 20260508124530 | 47 | 207 | 0.9 | 3.5 | 0.00 | 0.00 | 0.00 | 67 | 1012.0 |
| 20260508124017 | 48 | 190 | 0.9 | 3.5 | 0.00 | 0.00 | 0.00 | 69 | 1012.0 |
| 20260508123517 | 47 | 187 | 1.7 | 2.6 | 0.00 | 0.00 | 0.00 | 72 | 1012.0 |
| 20260508123030 | 47 | 180 | 0.0 | 1.7 | 0.00 | 0.00 | 0.00 | 75 | 1011.9 |
| 20260508122515 | 46 | 0 | 0.0 | 1.7 | 0.00 | 0.00 | 0.00 | 77 | 1011.7 |
| 20260508122016 | 46 | 149 | 0.9 | 1.7 | 0.00 | 0.00 | 0.00 | 77 | 1011.7 |
| 20260508121529 | 45 | 180 | 1.7 | 1.7 | 0.00 | 0.00 | 0.00 | 77 | 1011.8 |
| 20260508121016 | 45 | 198 | 0.0 | 0.9 | 0.00 | 0.00 | 0.00 | 79 | 1011.6 |
| 20260508120516 | 45 | 0 | 0.0 | 0.9 | 0.00 | 0.00 | 0.00 | 81 | 1011.5 |
| 20260508120041 | 45 | 0 | 0.0 | 0.9 | 0.00 | 0.00 | 0.00 | 80 | 1011.5 |
| 20260508115514 | 45 | 0 | 0.0 | 0.9 | 0.00 | 0.00 | 0.00 | 81 | 1011.5 |
| 20260508115017 | 44 | 0 | 0.0 | 0.0 | 0.00 | 0.00 | 0.00 | 86 | 1011.5 |
| 20260508114532 | 44 | 0 | 0.0 | 0.0 | 0.00 | 0.00 | 0.00 | 90 | 1011.4 |
| 20260508114014 | 43 | 0 | 0.0 | 0.0 | 0.00 | 0.00 | 0.00 | 91 | 1011.4 |
| 20260508113514 | 42 | 0 | 0.0 | 0.0 | 0.00 | 0.00 | 0.00 | 91 | 1011.3 |
| 20260508113041 | 41 | 0 | 0.0 | 0.0 | 0.00 | 0.00 | 0.00 | 91 | 1011.2 |
| 20260508112517 | 41 | 0 | 0.0 | 0.0 | 0.00 | 0.00 | 0.00 | 93 | 1011.2 |
| 20260508112016 | 40 | 0 | 0.0 | 0.0 | 0.00 | 0.00 | 0.00 | 93 | 1011.2 |
| 20260508111545 | 40 | 0 | 0.0 | 0.0 | 0.00 | 0.00 | 0.00 | 94 | 1011.2 |
| 20260508111014 | 39 | 0 | 0.0 | 0.0 | 0.00 | 0.00 | 0.00 | 94 | 1011.2 |
| 20260508110517 | 38 | 0 | 0.0 | 0.0 | 0.00 | 0.00 | 0.00 | 94 | 1011.2 |
| 20260508110033 | 38 | 0 | 0.0 | 0.0 | 0.00 | 0.00 | 0.00 | 94 | 1011.1 |
| 20260508105516 | 38 | 0 | 0.0 | 0.0 | 0.00 | 0.00 | 0.00 | 94 | 1011.1 |
| 20260508105020 | 37 | 0 | 0.0 | 0.0 | 0.00 | 0.00 | 0.00 | 94 | 1011.1 |
| 20260508104530 | 37 | 0 | 0.0 | 0.0 | 0.00 | 0.00 | 0.00 | 94 | 1011.1 |
| 20260508104013 | 36 | 0 | 0.0 | 0.0 | 0.00 | 0.00 | 0.00 | 94 | 1011.1 |
| 20260508103517 | 36 | 0 | 0.0 | 0.0 | 0.00 | 0.00 | 0.00 | 94 | 1011.1 |
| 20260508103030 | 37 | 0 | 0.0 | 0.0 | 0.00 | 0.00 | 0.00 | 94 | 1011.1 |
| 20260508102516 | 37 | 0 | 0.0 | 0.0 | 0.00 | 0.00 | 0.00 | 93 | 1011.2 |
| 20260508102016 | 37 | 0 | 0.0 | 0.9 | 0.00 | 0.00 | 0.00 | 93 | 1011.1 |
| 20260508101533 | 37 | 0 | 0.0 | 0.9 | 0.00 | 0.00 | 0.00 | 93 | 1011.1 |
| 20260508101013 | 37 | 333 | 0.0 | 0.9 | 0.00 | 0.00 | 0.00 | 93 | 1011.2 |
| 20260508100515 | 37 | 0 | 0.0 | 0.0 | 0.00 | 0.00 | 0.00 | 93 | 1011.2 |
| 20260508100031 | 37 | 0 | 0.0 | 0.0 | 0.00 | 0.00 | 0.00 | 93 | 1011.2 |
| 20260508095514 | 37 | 0 | 0.0 | 0.9 | 0.00 | 0.00 | 0.00 | 92 | 1011.2 |
| 20260508095017 | 37 | 0 | 0.0 | 0.9 | 0.00 | 0.00 | 0.00 | 92 | 1011.3 |
| 20260508094531 | 37 | 0 | 0.0 | 0.9 | 0.00 | 0.00 | 0.00 | 92 | 1011.3 |
| 20260508094049 | 38 | 0 | 0.0 | 0.0 | 0.00 | 0.00 | 0.00 | 92 | 1011.4 |
| 20260508093513 | 38 | 0 | 0.0 | 0.0 | 0.00 | 0.00 | 0.00 | 92 | 1011.3 |
| 20260508093033 | 38 | 0 | 0.0 | 0.0 | 0.00 | 0.00 | 0.00 | 92 | 1011.4 |
| 20260508092515 | 38 | 0 | 0.0 | 0.0 | 0.00 | 0.00 | 0.00 | 91 | 1011.4 |
| 20260508092011 | 38 | 0 | 0.0 | 0.0 | 0.00 | 0.00 | 0.00 | 91 | 1011.4 |
| 20260508091536 | 38 | 0 | 0.0 | 0.0 | 0.00 | 0.00 | 0.00 | 91 | 1011.4 |
| 20260508091014 | 39 | 0 | 0.0 | 0.0 | 0.00 | 0.00 | 0.00 | 91 | 1011.4 |
| 20260508090512 | 39 | 169 | 0.0 | 0.0 | 0.00 | 0.00 | 0.00 | 91 | 1011.3 |
| 20260508090028 | 39 | 0 | 0.0 | 0.0 | 0.00 | 0.00 | 0.00 | 91 | 1011.4 |
| 20260508085513 | 39 | 0 | 0.0 | 0.0 | 0.00 | 0.00 | 0.00 | 90 | 1011.4 |
| 20260508085013 | 39 | 0 | 0.0 | 0.0 | 0.00 | 0.00 | 0.00 | 89 | 1011.4 |
| 20260508084530 | 39 | 0 | 0.0 | 0.0 | 0.00 | 0.00 | 0.00 | 89 | 1011.5 |
| 20260508084017 | 39 | 0 | 0.0 | 0.0 | 0.00 | 0.00 | 0.00 | 89 | 1011.5 |
| 20260508083512 | 39 | 0 | 0.0 | 0.0 | 0.00 | 0.00 | 0.00 | 88 | 1011.3 |
| 20260508083030 | 39 | 0 | 0.0 | 0.0 | 0.00 | 0.00 | 0.00 | 88 | 1011.4 |
| 20260508082514 | 39 | 0 | 0.0 | 0.0 | 0.00 | 0.00 | 0.00 | 87 | 1011.5 |
| 20260508082014 | 39 | 0 | 0.0 | 0.0 | 0.00 | 0.00 | 0.00 | 85 | 1011.4 |
| 20260508081543 | 40 | 0 | 0.0 | 0.0 | 0.00 | 0.00 | 0.00 | 86 | 1011.4 |
| 20260508081016 | 40 | 0 | 0.0 | 0.0 | 0.00 | 0.00 | 0.00 | 85 | 1011.5 |
| 20260508080518 | 40 | 169 | 0.0 | 0.9 | 0.00 | 0.00 | 0.00 | 85 | 1011.4 |
| 20260508080029 | 41 | 0 | 0.0 | 0.9 | 0.00 | 0.00 | 0.00 | 84 | 1011.4 |
| 20260508075514 | 41 | 131 | 0.0 | 0.9 | 0.00 | 0.00 | 0.00 | 83 | 1011.4 |
| 20260508075013 | 41 | 0 | 0.0 | 0.9 | 0.00 | 0.00 | 0.00 | 83 | 1011.4 |
| 20260508074532 | 41 | 0 | 0.0 | 0.0 | 0.00 | 0.00 | 0.00 | 82 | 1011.5 |
| 20260508074014 | 41 | 0 | 0.0 | 0.0 | 0.00 | 0.00 | 0.00 | 81 | 1011.3 |
| 20260508073514 | 41 | 0 | 0.0 | 0.0 | 0.00 | 0.00 | 0.00 | 80 | 1011.3 |
| 20260508073031 | 42 | 0 | 0.0 | 0.0 | 0.00 | 0.00 | 0.00 | 80 | 1011.2 |
| 20260508072513 | 42 | 0 | 0.0 | 0.9 | 0.00 | 0.00 | 0.00 | 79 | 1011.2 |
| 20260508072013 | 42 | 167 | 0.0 | 0.9 | 0.00 | 0.00 | 0.00 | 80 | 1011.2 |
| 20260508071530 | 42 | 112 | 0.0 | 0.9 | 0.00 | 0.00 | 0.00 | 80 | 1011.2 |
| 20260508071015 | 42 | 0 | 0.0 | 0.9 | 0.00 | 0.00 | 0.00 | 81 | 1011.3 |
| 20260508070514 | 42 | 125 | 0.0 | 0.9 | 0.00 | 0.00 | 0.00 | 80 | 1011.4 |
| 20260508070031 | 42 | 0 | 0.0 | 0.9 | 0.00 | 0.00 | 0.00 | 80 | 1011.5 |
| 20260508065518 | 42 | 354 | 0.0 | 1.7 | 0.00 | 0.00 | 0.00 | 80 | 1011.5 |
| 20260508065013 | 42 | 0 | 0.0 | 1.7 | 0.00 | 0.00 | 0.00 | 80 | 1011.4 |
| 20260508064531 | 42 | 75 | 0.0 | 3.5 | 0.00 | 0.00 | 0.00 | 79 | 1011.5 |
| 20260508064016 | 42 | 37 | 0.0 | 3.5 | 0.00 | 0.00 | 0.00 | 79 | 1011.6 |
| 20260508063516 | 42 | 345 | 1.7 | 3.5 | 0.00 | 0.00 | 0.00 | 79 | 1011.9 |
| 20260508063030 | 42 | 335 | 0.0 | 1.7 | 0.00 | 0.00 | 0.00 | 79 | 1011.7 |
| 20260508062514 | 43 | 1 | 0.0 | 1.7 | 0.00 | 0.00 | 0.00 | 77 | 1011.7 |
| 20260508062014 | 43 | 0 | 0.0 | 3.5 | 0.00 | 0.00 | 0.00 | 76 | 1011.8 |
| 20260508061530 | 43 | 346 | 0.9 | 3.5 | 0.00 | 0.00 | 0.00 | 76 | 1011.9 |
| 20260508061014 | 43 | 8 | 0.0 | 1.7 | 0.00 | 0.00 | 0.00 | 75 | 1011.7 |
| 20260508060519 | 43 | 358 | 0.0 | 0.9 | 0.00 | 0.00 | 0.00 | 73 | 1011.9 |
| 20260508060029 | 43 | 0 | 0.0 | 3.5 | 0.00 | 0.00 | 0.00 | 72 | 1012.0 |
| 20260508055514 | 43 | 347 | 0.0 | 6.1 | 0.00 | 0.00 | 0.00 | 71 | 1011.9 |
| 20260508055013 | 44 | 308 | 0.9 | 6.1 | 0.00 | 0.00 | 0.00 | 71 | 1011.6 |
| 20260508054530 | 44 | 103 | 3.5 | 6.1 | 0.00 | 0.00 | 0.00 | 69 | 1011.2 |
| 20260508054011 | 44 | 108 | 0.9 | 4.3 | 0.00 | 0.00 | 0.00 | 68 | 1012.0 |
| 20260508053515 | 44 | 331 | 0.9 | 4.3 | 0.00 | 0.00 | 0.00 | 67 | 1012.3 |
| 20260508053031 | 44 | 0 | 0.0 | 0.9 | 0.00 | 0.00 | 0.00 | 67 | 1011.8 |
| 20260508052517 | 44 | 0 | 0.0 | 0.9 | 0.00 | 0.00 | 0.00 | 67 | 1011.8 |
| 20260508052011 | 44 | 0 | 0.0 | 0.9 | 0.00 | 0.00 | 0.00 | 67 | 1011.8 |
| 20260508051534 | 44 | 0 | 0.0 | 0.9 | 0.00 | 0.00 | 0.00 | 68 | 1011.9 |
| 20260508051011 | 44 | 0 | 0.0 | 2.6 | 0.00 | 0.00 | 0.00 | 68 | 1012.0 |
| 20260508050516 | 44 | 357 | 0.9 | 3.5 | 0.00 | 0.00 | 0.00 | 67 | 1012.1 |
| 20260508050033 | 44 | 352 | 0.9 | 3.5 | 0.00 | 0.00 | 0.00 | 66 | 1012.1 |
| 20260508045515 | 44 | 25 | 0.0 | 2.6 | 0.00 | 0.00 | 0.00 | 67 | 1011.9 |
| 20260508045014 | 44 | 0 | 0.0 | 0.9 | 0.00 | 0.00 | 0.00 | 68 | 1012.0 |
| 20260508044528 | 44 | 0 | 0.0 | 1.7 | 0.00 | 0.00 | 0.00 | 69 | 1011.9 |
| 20260508044014 | 44 | 0 | 0.0 | 1.7 | 0.00 | 0.00 | 0.00 | 69 | 1012.0 |
| 20260508043514 | 43 | 0 | 0.0 | 1.7 | 0.00 | 0.00 | 0.00 | 73 | 1012.1 |
| 20260508043032 | 43 | 301 | 0.0 | 1.7 | 0.00 | 0.00 | 0.00 | 77 | 1012.1 |
| 20260508042515 | 43 | 347 | 0.0 | 0.9 | 0.00 | 0.00 | 0.00 | 75 | 1012.2 |
| 20260508042014 | 43 | 216 | 0.0 | 0.9 | 0.00 | 0.00 | 0.00 | 78 | 1012.1 |
| 20260508041534 | 43 | 0 | 0.0 | 0.0 | 0.00 | 0.00 | 0.00 | 76 | 1011.9 |
| 20260508041014 | 43 | 0 | 0.0 | 0.0 | 0.00 | 0.00 | 0.00 | 71 | 1011.7 |
| 20260508040514 | 44 | 0 | 0.0 | 0.0 | 0.00 | 0.00 | 0.00 | 70 | 1011.6 |
| 20260508040032 | 44 | 0 | 0.0 | 0.0 | 0.00 | 0.00 | 0.00 | 73 | 1011.6 |
| 20260508035517 | 44 | 0 | 0.0 | 0.0 | 0.00 | 0.00 | 0.00 | 73 | 1011.6 |
| 20260508035014 | 44 | 0 | 0.0 | 0.0 | 0.00 | 0.00 | 0.00 | 73 | 1011.5 |
| 20260508034534 | 45 | 0 | 0.0 | 0.0 | 0.00 | 0.00 | 0.00 | 73 | 1011.5 |
| 20260508034012 | 45 | 0 | 0.0 | 0.0 | 0.00 | 0.00 | 0.00 | 72 | 1011.5 |
| 20260508033513 | 45 | 0 | 0.0 | 0.0 | 0.00 | 0.00 | 0.00 | 71 | 1011.5 |
| 20260508033028 | 45 | 0 | 0.0 | 0.0 | 0.00 | 0.00 | 0.00 | 66 | 1011.4 |
| 20260508032513 | 45 | 0 | 0.0 | 0.0 | 0.00 | 0.00 | 0.00 | 67 | 1011.3 |
| 20260508032015 | 45 | 0 | 0.0 | 0.0 | 0.00 | 0.00 | 0.00 | 67 | 1011.4 |
| 20260508031532 | 45 | 0 | 0.0 | 0.0 | 0.00 | 0.00 | 0.00 | 68 | 1011.5 |
| 20260508031014 | 45 | 0 | 0.0 | 0.0 | 0.00 | 0.00 | 0.00 | 66 | 1011.5 |
| 20260508030513 | 45 | 0 | 0.0 | 0.0 | 0.00 | 0.00 | 0.00 | 65 | 1011.6 |
| 20260508030032 | 45 | 0 | 0.0 | 0.0 | 0.00 | 0.00 | 0.00 | 63 | 1011.7 |
| 20260508025513 | 45 | 0 | 0.0 | 0.0 | 0.00 | 0.00 | 0.00 | 61 | 1011.8 |
| 20260508025016 | 45 | 0 | 0.0 | 0.0 | 0.00 | 0.00 | 0.00 | 61 | 1011.9 |
| 20260508024532 | 45 | 0 | 0.0 | 0.0 | 0.00 | 0.00 | 0.00 | 62 | 1011.9 |
| 20260508024014 | 45 | 0 | 0.0 | 0.0 | 0.00 | 0.00 | 0.00 | 63 | 1012.0 |
| 20260508023514 | 45 | 0 | 0.0 | 0.0 | 0.00 | 0.00 | 0.00 | 63 | 1011.9 |
| 20260508023030 | 45 | 0 | 0.0 | 0.0 | 0.00 | 0.00 | 0.00 | 63 | 1011.9 |
| 20260508022513 | 45 | 0 | 0.0 | 0.9 | 0.00 | 0.00 | 0.00 | 61 | 1011.7 |
| 20260508022014 | 45 | 0 | 0.0 | 0.9 | 0.00 | 0.00 | 0.00 | 61 | 1011.9 |